Hourly Weather Roundup
Issued by NWS Central Illinois

Home | Current Version | Previous Version | Text Only | Print | Product List | Glossary On
Versions: 1 2 3 4 5 6 7 8 9 10 11 12 13 14 15 16 17 18 19 20 21 22 23 24 25 26 27 28 29 30 31 32 33 34 35 36 37 38 39 40 41 42 43 44 45 46 47 48 49 50
000
NZUS43 KILX 240110
HWRILX

AREA WEATHER ROUNDUP
NATIONAL WEATHER SERVICE, LINCOLN IL
800 PM CDT THU OCT 23 2014


CITY           SKY/WX    TMP DP  RH WIND       PRES   REMARKS
BLOOMINGTON    CLOUDY    54  44  68 SW7       30.11R
CHAMPAIGN      PTCLDY    50  41  71 SE7       30.10F
DECATUR        PTCLDY    54  43  66 S9        30.10S
FLORA          CLOUDY    51  44  78 SW3       30.14R
GALESBURG      MOCLDY    54  47  79 S5        30.06R
JACKSONVILLE   CLOUDY    60  47  60 S7        30.09R
LACON          CLOUDY    56  43  62 S3        30.06S
LAWRENCEVILLE  CLOUDY    51  45  79 S3        30.13S
LITCHFIELD     CLOUDY    55  43  63 S8        30.10F
$$


CITY           SKY/WX    TMP DP  RH WIND       PRES   REMARKS
LINCOLN        CLOUDY    56  44  63 S5        30.08R
MACOMB         CLOUDY    56  50  82 S5        30.09R
MATTOON        MOCLDY    51  43  74 S6        30.11S
MT CARMEL AP   CLOUDY    54  45  71 CALM      30.13S
OLNEY-NOBLE AP CLOUDY    50  43  76 CALM      30.13S
PARIS          CLOUDY    50  44  78 CALM      30.13R
PEORIA         CLOUDY    57  45  64 S8        30.08R
PONTIAC        CLOUDY    55  45  69 S5        30.09S
RANTOUL        PTCLDY    49  42  76 S5        30.10S
ROBINSON       CLOUDY    51  45  80 CALM      30.14S
SPRINGFIELD    CLOUDY    58  44  60 S5        30.10R
TAYLORVILLE    PTCLDY    52  43  71 S7        30.10S
$$

...REGIONAL REPORTS...


CITY           SKY/WX    TMP DP  RH WIND       PRES   REMARKS
CHICAGO O`HARE CLOUDY    55  42  61 S5        30.07R
KANKAKEE       MOCLDY    50  42  73 SE6       30.10S
MOLINE         CLOUDY    57  47  69 CALM      30.05R
MOUNT VERNON   CLOUDY    48  43  81 CALM      30.14S
PITTSFIELD     CLOUDY    57  52  83 S3        30.09S
QUINCY         PTCLDY    55  51  86 S9        30.06S
ROCKFORD       CLOUDY    51  48  89 S6        30.09S
$$


CITY           SKY/WX    TMP DP  RH WIND       PRES   REMARKS
BURLINGTON     PTCLDY    55  51  86 SW6       30.05R
CEDAR RAPIDS   CLEAR     50  50 100 CALM      30.04R FOG
DES MOINES     PTCLDY    60  55  83 S8        30.03R
KIRKSVILLE     CLEAR     58  57  97 SW5       30.07R
OTTUMWA        CLEAR     47  46  97 CALM      30.05R FOG
ST LOUIS       CLOUDY    62  45  53 S6        30.10S
$$


CITY           SKY/WX    TMP DP  RH WIND       PRES   REMARKS
TERRE HAUTE    CLOUDY    48  44  86 CALM      30.13R
EVANSVILLE     CLOUDY    53  46  77 CALM      30.14R
INDIANAPOLIS   CLOUDY    53  39  59 SE5       30.11F
LAFAYETTE      CLOUDY    48  43  82 CALM      30.11F
MADISON        CLOUDY    52  49  89 SW3       30.05R
MILWAUKEE      CLOUDY    53  49  86 S6        30.07R FOG
$$





USA.gov is the U.S. government's official web portal to all federal, state and local government web resources and services.